When you browse on this site, cookies collect data to enhance your experience and personalize the content and advertising you see.
Visit our Privacy Policy to learn more. By continuing to use the site, you agree to this use of cookies and data.
  • In Switzerland
  • List of Countries
  • For 7 days
  • Water Temperature
  • Satellite Maps
  • Weather Map
  • Weather Widgets
  • user-avatar
    Login

    Hourly Weather Quito

    Today, 24 June, Monday

    Time Temperature Precipitation Wind Pressure Humidity
    00:00 +13°C° 0 mm 1 mps 622 mmHg 42%
    01:00 +11°C° 0 mm 0 mps 622 mmHg 43%
    02:00 +10°C° 0 mm 0 mps 621 mmHg 46%
    03:00 +10°C° 0 mm 1 mps 621 mmHg 48%
    04:00 +10°C° 0 mm 1 mps 620 mmHg 50%
    05:00 +10°C° 0 mm 1 mps 621 mmHg 49%
    06:00 +11°C° 0 mm 1 mps 622 mmHg 49%
    07:00 +12°C° 0 mm 0 mps 623 mmHg 48%
    08:00 +16°C° 0 mm 1 mps 624 mmHg 41%
    09:00 +21°C° 0 mm 1 mps 625 mmHg 33%
    10:00 +24°C° 0 mm 1 mps 626 mmHg 26%
    11:00 +26°C° 0 mm 1 mps 626 mmHg 24%
    12:00 +27°C° 0 mm 1 mps 626 mmHg 22%
    13:00 +28°C° 0 mm 1 mps 626 mmHg 20%
    14:00 +27°C° 0 mm 1 mps 625 mmHg 21%
    15:00 +27°C° 0 mm 2 mps 624 mmHg 21%
    16:00 +26°C° 0 mm 2 mps 623 mmHg 22%
    17:00 +23°C° 0 mm 2 mps 623 mmHg 28%
    18:00 +20°C° 0 mm 1 mps 622 mmHg 35%
    19:00 +16°C° 0 mm 1 mps 622 mmHg 41%
    20:00 +15°C° 0 mm 1 mps 622 mmHg 41%
    21:00 +15°C° 0 mm 1 mps 622 mmHg 41%
    22:00 +14°C° 0 mm 1 mps 622 mmHg 41%
    23:00 +13°C° 0 mm 0 mps 622 mmHg 42%

    Tomorrow, 25 June, Tuesday

    Time Temperature Precipitation Wind Pressure Humidity
    00:00 +12°C° 0 mm 0 mps 622 mmHg 43%
    01:00 +12°C° 0 mm 0 mps 622 mmHg 43%
    02:00 +12°C° 0 mm 1 mps 621 mmHg 45%
    03:00 +12°C° 0 mm 1 mps 621 mmHg 47%
    04:00 +11°C° 0 mm 1 mps 621 mmHg 49%
    05:00 +11°C° 0 mm 1 mps 621 mmHg 49%
    06:00 +12°C° 0 mm 1 mps 622 mmHg 49%
    07:00 +12°C° 0 mm 1 mps 623 mmHg 49%
    08:00 +15°C° 0 mm 2 mps 623 mmHg 43%
    09:00 +19°C° 0 mm 2 mps 624 mmHg 36%
    10:00 +22°C° 0 mm 3 mps 625 mmHg 30%
    11:00 +25°C° 0 mm 3 mps 625 mmHg 27%
    12:00 +26°C° 0 mm 2 mps 625 mmHg 25%
    13:00 +27°C° 0 mm 2 mps 624 mmHg 22%
    14:00 +27°C° 0 mm 2 mps 624 mmHg 22%
    15:00 +26°C° 0 mm 2 mps 623 mmHg 23%
    16:00 +26°C° 0 mm 2 mps 623 mmHg 23%
    17:00 +23°C° 0 mm 2 mps 622 mmHg 28%
    18:00 +20°C° 0 mm 1 mps 622 mmHg 33%
    19:00 +16°C° 0 mm 1 mps 621 mmHg 38%
    20:00 +16°C° 0 mm 1 mps 621 mmHg 39%
    21:00 +15°C° 0 mm 1 mps 622 mmHg 39%
    22:00 +15°C° 0 mm 1 mps 622 mmHg 40%
    23:00 +13°C° 0 mm 0 mps 622 mmHg 41%

    Day after tomorrow, 26 June, Wednesday

    Time Temperature Precipitation Wind Pressure Humidity
    00:00 +13°C° 0 mm 0 mps 622 mmHg 42%
    01:00 +12°C° 0 mm 0 mps 621 mmHg 43%
    02:00 +12°C° 0 mm 0 mps 621 mmHg 45%
    03:00 +11°C° 0 mm 0 mps 621 mmHg 46%
    04:00 +11°C° 0 mm 0 mps 621 mmHg 48%
    05:00 +11°C° 0 mm 0 mps 621 mmHg 48%
    06:00 +12°C° 0 mm 1 mps 622 mmHg 48%
    07:00 +12°C° 0 mm 1 mps 623 mmHg 49%
    08:00 +16°C° 0 mm 1 mps 624 mmHg 41%
    09:00 +20°C° 0 mm 2 mps 625 mmHg 34%
    10:00 +24°C° 0 mm 2 mps 626 mmHg 26%
    11:00 +25°C° 0 mm 2 mps 625 mmHg 25%
    12:00 +27°C° 0 mm 2 mps 625 mmHg 23%
    13:00 +28°C° 0 mm 2 mps 625 mmHg 21%
    14:00 +27°C° 0 mm 2 mps 624 mmHg 22%
    15:00 +27°C° 0 mm 2 mps 624 mmHg 22%
    16:00 +27°C° 0 mm 2 mps 623 mmHg 22%
    17:00 +24°C° 0 mm 2 mps 623 mmHg 28%
    18:00 +21°C° 0 mm 1 mps 622 mmHg 34%
    19:00 +18°C° 0 mm 1 mps 622 mmHg 39%
    20:00 +16°C° 0 mm 1 mps 622 mmHg 40%
    21:00 +16°C° 0 mm 1 mps 622 mmHg 41%
    22:00 +15°C° 0 mm 1 mps 623 mmHg 42%
    23:00 +15°C° 0 mm 1 mps 622 mmHg 43%

    27 June, Thursday

    Time Temperature Precipitation Wind Pressure Humidity
    00:00 +14°C° 0 mm 1 mps 622 mmHg 44%
    01:00 +14°C° 0 mm 1 mps 622 mmHg 45%
    02:00 +13°C° 0 mm 1 mps 622 mmHg 47%
    03:00 +12°C° 0 mm 1 mps 621 mmHg 50%
    04:00 +12°C° 0 mm 1 mps 621 mmHg 52%
    05:00 +13°C° 0 mm 1 mps 622 mmHg 51%
    06:00 +12°C° 0 mm 0 mps 623 mmHg 50%
    07:00 +13°C° 0 mm 0 mps 623 mmHg 49%
    08:00 +19°C° 0 mm 1 mps 624 mmHg 41%
    09:00 +22°C° 0 mm 1 mps 626 mmHg 33%
    10:00 +26°C° 0 mm 2 mps 627 mmHg 25%
    11:00 +27°C° 0 mm 2 mps 626 mmHg 23%
    12:00 +27°C° 0 mm 2 mps 626 mmHg 21%
    13:00 +28°C° 0 mm 3 mps 625 mmHg 20%
    14:00 +28°C° 0 mm 3 mps 625 mmHg 20%
    15:00 +28°C° 0 mm 3 mps 624 mmHg 21%
    16:00 +27°C° 0 mm 3 mps 624 mmHg 21%
    17:00 +24°C° 0 mm 2 mps 623 mmHg 26%
    18:00 +20°C° 0 mm 2 mps 623 mmHg 31%
    19:00 +18°C° 0 mm 1 mps 622 mmHg 36%
    20:00 +18°C° 0 mm 1 mps 622 mmHg 36%
    21:00 +16°C° 0 mm 1 mps 622 mmHg 36%
    22:00 +15°C° 0 mm 0 mps 623 mmHg 37%
    23:00 +15°C° 0 mm 1 mps 623 mmHg 38%

    28 June, Friday

    Time Temperature Precipitation Wind Pressure Humidity
    00:00 +15°C° 0 mm 1 mps 622 mmHg 39%
    01:00 +14°C° 0 mm 1 mps 622 mmHg 40%
    02:00 +14°C° 0 mm 1 mps 622 mmHg 42%
    03:00 +13°C° 0 mm 1 mps 622 mmHg 44%
    04:00 +12°C° 0 mm 1 mps 621 mmHg 47%
    05:00 +13°C° 0 mm 1 mps 622 mmHg 47%
    06:00 +13°C° 0 mm 1 mps 623 mmHg 47%
    07:00 +14°C° 0 mm 1 mps 623 mmHg 48%
    08:00 +17°C° 0 mm 2 mps 624 mmHg 41%
    09:00 +20°C° 0 mm 3 mps 625 mmHg 34%
    10:00 +25°C° 0 mm 3 mps 626 mmHg 27%
    11:00 +26°C° 0 mm 3 mps 626 mmHg 25%
    12:00 +27°C° 0 mm 3 mps 625 mmHg 23%
    13:00 +28°C° 0 mm 3 mps 625 mmHg 21%
    14:00 +28°C° 0 mm 3 mps 625 mmHg 21%
    15:00 +28°C° 0 mm 2 mps 624 mmHg 21%
    16:00 +27°C° 0 mm 2 mps 624 mmHg 21%
    17:00 +24°C° 0 mm 2 mps 623 mmHg 25%
    18:00 +22°C° 0 mm 1 mps 623 mmHg 29%
    19:00 +19°C° 0 mm 1 mps 622 mmHg 34%
    20:00 +18°C° 0 mm 1 mps 622 mmHg 35%
    21:00 +16°C° 0 mm 1 mps 623 mmHg 37%
    22:00 +14°C° 0 mm 0 mps 623 mmHg 39%
    23:00 +15°C° 0 mm 1 mps 623 mmHg 41%

    29 June, Saturday

    Time Temperature Precipitation Wind Pressure Humidity
    00:00 +15°C° 0 mm 1 mps 623 mmHg 42%
    01:00 +14°C° 0 mm 1 mps 622 mmHg 44%
    02:00 +14°C° 0 mm 1 mps 622 mmHg 46%
    03:00 +13°C° 0 mm 1 mps 622 mmHg 48%
    04:00 +13°C° 0 mm 1 mps 622 mmHg 50%
    05:00 +13°C° 0 mm 1 mps 623 mmHg 49%
    06:00 +13°C° 0 mm 2 mps 623 mmHg 49%
    07:00 +13°C° 0 mm 2 mps 624 mmHg 49%
    08:00 +17°C° 0 mm 3 mps 625 mmHg 41%
    09:00 +20°C° 0 mm 4 mps 626 mmHg 34%
    10:00 +23°C° 0 mm 5 mps 626 mmHg 26%
    11:00 +25°C° 0 mm 4 mps 626 mmHg 24%
    12:00 +27°C° 0 mm 3 mps 626 mmHg 22%
    13:00 +28°C° 0 mm 3 mps 626 mmHg 20%
    14:00 +28°C° 0 mm 3 mps 625 mmHg 20%
    15:00 +27°C° 0 mm 3 mps 625 mmHg 20%
    16:00 +27°C° 0 mm 2 mps 624 mmHg 19%
    17:00 +24°C° 0 mm 2 mps 624 mmHg 24%
    18:00 +20°C° 0 mm 2 mps 623 mmHg 28%
    19:00 +18°C° 0 mm 1 mps 623 mmHg 32%
    20:00 +18°C° 0 mm 1 mps 623 mmHg 34%
    21:00 +16°C° 0 mm 1 mps 623 mmHg 36%
    22:00 +15°C° 0 mm 1 mps 623 mmHg 38%
    23:00 +14°C° 0 mm 1 mps 623 mmHg 39%
    Show more